User: anonymous   Login
Location: Moscow
(55.7500°N, 37.5830°E)
Time: 04:49:10
(UTC+03:00)
Language:

FENGYUN 1C DEB - Orbit

View from above orbital plane
View from above orbital plane
View from above satellite
View from above satellite

Ground track
Ground track

The orbit data is extracted from the following two-line orbital elements,

1 35119U 99025DKX 22083.15572146  .00012835  00000-0  20826-2 0  9999
2 35119  99.9667  51.6928 0045685  80.0192 350.3586 14.70655756456928
Epoch (UTC): 24 March 2022 03:44:14
Eccentricity: 0.0045685
inclination: 99.9667°
perigee height: 627 km
apogee height: 691 km
right ascension of ascending node: 51.6928°
argument of perigee: 80.0192°
revolutions per day: 14.70655756
mean anomaly at epoch: 350.3586°
orbit number at epoch: 45692

The dashed part of the orbit path shows where the satellite is in the earth's shadow,  

DLR